Погода в Анкавандре

Мадагаскар     18°39′29″S   45°16′02″E
темп.,
°C
ветер,
м/с
пор.,
м/с
влажн.,
%
обл.,
%
осадки,
мм/ч
давл.,
гПа
погр.,
м
10 августа, ср
ср1000:00+19всв12480 0.0 102017
03:00+17всв22580 0.0 102019
06:00+16всв22630 0.0 102128
09:00+24вюв15330 0.0 1022795
12:00+31всв24200 0.0 10182522
15:00+33юз24171 0.0 10153017
18:00+27ююз232597 0.0 101639
21:00+23юв24397 0.0 1019119
11 августа, чт
чт1100:00+19всв22485 0.0 102025
03:00+17св22530 0.0 102029
06:00+16всв11560 0.0 102120
09:00+23юв13350 0.0 1022719
12:00+30юз23210 0.0 10192074
15:00+31ююз55190 0.0 10162424
18:00+25ююв34272 0.0 101656
21:00+21юв114929 0.0 102011
12 августа, пт
пт1200:00+19всв11520 0.0 102016
03:00+17всв11580 0.0 102014
06:00+16всв11640 0.0 102116
09:00+24юв14390 0.0 1021946
12:00+31ююз24220 0.0 10182607
15:00+33ю34189 0.0 10143343
18:00+26ююв242754 0.0 101571
21:00+21ссв01502 0.0 101913
13 августа, сб
сб1300:00+19в11580 0.0 101913
03:00+18всв11602 0.0 101815
06:00+17всв22670 0.0 101923
09:00+25вюв13390 0.0 1020764
12:00+32зюз142128 0.0 10162585
15:00+33ююз231897 0.0 10133346
18:00+28зюз2226100 0.0 101339
21:00+21юв115788 0.0 101716
14 августа, вс
вс1400:00+22всв1154100 0.0 101754
03:00+21с115740 0.0 101612
06:00+18св11644 0.0 101712
09:00+26юз114070 0.0 1018659
12:00+31зюз342879 0.0 10152099
15:00+32з342412 0.0 10112576
18:00+28зсз2328100 0.0 101244
21:00+22ссз116513 0.0 101618